Preview of NWS' New Version of Forecast
This preview is not operational and should not be used for support decisions.

Regional Weather Roundup (RWR)

Issued by Gray - Portland, ME (GYX)

                            
000
ASUS41 KGYX 202010
RWRGYX
WEATHER ROUNDUP FOR MAINE AND NEW HAMPSHIRE
NATIONAL WEATHER SERVICE GRAY ME
400 PM EDT SUN MAY 20 2018

MEZ002-005-006-010-012-015-018-020-021-024-026-027-029-202100-
MAINE
  
CITY           SKY/WX    TMP DP  RH WIND       PRES   REMARKS
PORTLAND       PTSUNNY   78  63  59 VRB6      29.81S                  
SANFORD        FAIR      77  62  59 W15       29.83S                  
BAR HARBOR     PTSUNNY   69  63  81 VRB7      29.80S                  
WISCASSET      FAIR      74  62  66 CALM      29.82R                  
ROCKLAND       FAIR      70  64  81 W9        29.80S                  
FRYEBURG       PTSUNNY   76  55  48 W10G17    29.85R                  
LEWISTONAUBURN FAIR      76  57  51 NW13G18   29.83R                  
AUGUSTA        PTSUNNY   77  56  48 NW12G20   29.81S                  
WATERVILLE     CLOUDY    72  59  63 N8        29.80R                  
BANGOR         PTSUNNY   71  58  63 NW9       29.81R                  
GREENVILLE       N/A     59  48  67 NW16G26   29.84R                  
MILLINOCKET    FAIR      66  48  52 W15G28    29.81R                  
HOULTON        FAIR      68  49  50 NW10G23   29.75R                  
PRESQUE ISLE   FAIR      65  40  39 NW16      29.78R                  
FRENCHVILLE    FAIR      60  37  42 NW17      29.80R                  
CARIBOU        FAIR      63  37  38 NW18G31   29.78R                  
$$

NHZ002-005-008-009-011-012-014-202100-
NEW HAMPSHIRE
  
CITY           SKY/WX    TMP DP  RH WIND       PRES   REMARKS
PORTSMOUTH     LGT RAIN  77  64  65 W9        29.81S                  
ROCHESTER      CLOUDY    73  63  70 NW15G21   29.83F                  
NASHUA         CLOUDY    75  65  70 W12       29.86R                  
MANCHESTER     CLOUDY    77  63  61 NW13      29.84R                  
CONCORD        LGT RAIN  68  61  78 NW9       29.87R                  
LACONIA        PTSUNNY   72  57  59 W10G21    29.88R                  
PLYMOUTH       PTSUNNY   69  55  59 W13G18    29.89R                  
BERLIN         CLOUDY    64  53  67 NW10G20   29.92R                  
WHITEFIELD     CLOUDY    63  54  72 NW13G18   29.94R                  
JAFFREY        CLOUDY    72  64  76 NW8       29.90R                  
KEENE          CLOUDY    69  65  86 N10       29.90R                  
LEBANON        CLOUDY    71  53  52 N13G21    29.92R                  
MT WASHINGTON  FOG       43  43 100 NW45G55     N/A  VSB 0            
$$

VTZ005-007-008-202100-
VERMONT
  
CITY           SKY/WX    TMP DP  RH WIND       PRES   REMARKS
ST JOHNSBURY     N/A     63  55  75 MISG      29.93R                  
MONTPELIER     CLOUDY    62  56  80 NW9       29.99R                  
BURLINGTON     PTSUNNY   68  52  56 NW12      29.96R                  
$$

MAZ007-012-024-CTZ003-RIZ002-NYZ038-NYZ072-202100-
SOUTHERN NEW ENGLAND AND NY
  
CITY           SKY/WX    TMP DP  RH WIND       PRES   REMARKS
BOSTON         LGT RAIN  75  67  76 W18G29    29.84R                  
WORCESTER      PTSUNNY   73  64  73 W13G21    29.90R                  
NANTUCKET      FOG       58  58 100 SW18      29.92S VSB 1            
PROVIDENCE     PTSUNNY   77  67  71 SW12      29.87S                  
HARTFORD       PTSUNNY   73  67  81 N9        29.88R                  
ALBANY         PTSUNNY   71  58  63 W16G25    29.95R                  
NEW YORK CITY  PTSUNNY   83  62  49 W14       29.91F                  
$$

ANZ081-ANZ082-ANZ150-NHZ014-MEZ023>029-202100-
COASTAL MARINE OBSERVATIONS
  
STATION/POSITION TIME  TEMP    WIND        PRES    WAVE
                       AIR SEA DIR/SP/G            HT/PER
                 (UTC) (F)     (DEG/KT/KT) (MB)    (FT/S)
MOUNT DESERT ROC 2000   49     210/ 12/ 13 1009.6R
MATINICUS ROCK   2000   52     220/ 14/ 14 1009.0R
ISLE OF SHOALS   2000   73     290/ 17/ 19 1009.3F
JEFFREYS LEDGE   1936      50                N/A     4/ 6
CASHES LEDGE BUO 1950   53 49              1009.7R   4/ 6
$$

.............KEY..............
   WCI - WIND CHILL
   TC  - TEMPERATURE IN CELSIUS
   VSB - VISIBILITY IN MILES
   HX  - HEAT INDEX
   FAIR- INDICATES FEW OR NO CLOUDS BELOW 12,000 FT, WITH NO 
         SIGNIFICANT WEATHER AND/OR OBSTRUCTIONS TO VISIBILITY.